Hourly Data Report for September 28, 2017

All times are specified in Local Standard Time (LST). Add 1 hour to adjust for Daylight Saving Time where and when it is observed.

CAPE DORSET A
NUNAVUT

64°13'49.000" N
76°31'30.000" W
48.20 m
2400637
71366
YTE

Related Data

No related data is available for this station

Download Data

Hourly Data (September 2017)
Hourly Data Report for September 28, 2017
Temp Definition
°C
Dew Point Temp Definition
°C
Rel Hum Definition
%
Wind Dir Definition
10's deg

Wind Spd Definition
km/h
Visibility Definition
km
Stn Press Definition
kPa
Hmdx Definition


Wind Chill Definition


Weather Definition


TIME
00:00 Legend Double Dagger 0.8 0.7 99 25 26 16.1 100.53     Rain
01:00 Legend Double Dagger 0.9 0.6 98 26 24 16.1 100.50     Rain
02:00 Legend Double Dagger 1.0 0.7 98 25 28 16.1 100.48     Rain
03:00 Legend Double Dagger 1.7 0.7 93 26 30 16.1 100.47     LegendNANA
04:00 Legend Double Dagger 1.3 0.7 96 25 17 16.1 100.50     LegendNANA
05:00 Legend Double Dagger 1.7 1.1 96 27 18 16.1 100.52     LegendNANA
06:00 Legend Double Dagger 2.1 1.5 96 27 18 16.1 100.50     LegendNANA
07:00 Legend Double Dagger 2.5 1.3 92 27 21 16.1 100.50     LegendNANA
08:00 Legend Double Dagger 2.4 1.5 94 28 24 16.1 100.49     LegendNANA
09:00 Legend Double Dagger 2.5 1.5 93 28 28 16.1 100.50     LegendNANA
10:00 Legend Double Dagger 2.7 1.5 92 29 17 16.1 100.55     LegendNANA
11:00 Legend Double Dagger 3.0 1.2 88 32 13 16.1 100.61     LegendNANA
12:00 Legend Double Dagger 2.7 0.6 86 32 17 16.1 100.64     LegendNANA
13:00 Legend Double Dagger 2.0 -0.4 84 34 17 16.1 100.68     LegendNANA
14:00 Legend Double Dagger 1.5 -1.4 81 31 22 16.1 100.75     LegendNANA
15:00 Legend Double Dagger 0.9 -1.9 82 32 22 16.1 100.81     Snow
16:00 Legend Double Dagger 0.6 -2.6 79 33 22 16.1 100.86     LegendNANA
17:00 Legend Double Dagger 0.3 -3.8 74 32 24 16.1 100.89     LegendNANA
18:00 Legend Double Dagger 0.1 -3.8 75 32 21 16.1 100.94     LegendNANA
19:00 Legend Double Dagger -0.5 -5.6 69 31 32 16.1 100.97   -7 LegendNANA
20:00 Legend Double Dagger -0.7 -6.5 65 31 22 16.1 101.01   -6 LegendNANA
21:00 Legend Double Dagger -0.5 -5.1 71 32 22 16.1 101.02   -6 LegendNANA
22:00 Legend Double Dagger -0.9 -5.4 72 30 26 16.1 101.02   -7 LegendNANA
23:00 Legend Double Dagger -1.2 -4.2 80 30 18 16.1 101.06   -6 LegendNANA

Notes on Data Quality.

Legend

  • E = Estimated
  • M = Missing
  • NA = Not Available
  • ‡ = Partner data that is not subject to review by the National Climate Archives
Date modified: